Overview Statistics Trail Chart Weather Telemetry Raw packets
 

This is the latest recevied weather packets stored in our database for station/object K5GHS-1. If no packets are shown the sender has not sent any weather packets the latest 10 day(s).

<< 103 104 105 106 107 108 109 >>
Time Temp. Humidity Pressure Rain* Wind** Luminosity Snow
1787932674 35.56° C 53% 1017.2 hPa 0 mm - 645 W/m² -
1787932368 35° C 53% 1017 hPa 0 mm - 627 W/m² -
1787932063 34.44° C 56% 1017.2 hPa 0 mm - 560 W/m² -
1787931762 34.44° C 56% 1017.2 hPa 0 mm - 517 W/m² -
1787931462 33.89° C 57% 1017 hPa 0 mm - 524 W/m² -
1787931156 33.89° C 57% 1016.9 hPa 0 mm - 529 W/m² -
1787930855 33.33° C 58% 1016.9 hPa 0 mm - 521 W/m² -
1787930550 33.89° C 58% 1016.9 hPa 0 mm - 515 W/m² -
1787930245 33.33° C 58% 1017 hPa 0 mm - 442 W/m² -
1787929944 33.33° C 58% 1016.8 hPa 0 mm - 419 W/m² -
1787929644 33.33° C 59% 1016.9 hPa 0 mm - 414 W/m² -
1787929338 33.33° C 60% 1016.7 hPa 0 mm - 370 W/m² -
1787929036 33.33° C 60% 1016.9 hPa 0 mm - 323 W/m² -
1787928732 33.33° C 60% 1016.8 hPa 0 mm - 314 W/m² -
1787928430 32.78° C 60% 1017 hPa 0 mm - 294 W/m² -
1787928129 32.22° C 61% 1016.9 hPa 0 mm - 266 W/m² -
1787927829 32.22° C 61% 1016.9 hPa 0 mm - 260 W/m² -
1787927523 32.22° C 60% 1016.7 hPa 0 mm - 252 W/m² -
1787927218 31.67° C 62% 1016.9 hPa 0 mm - 231 W/m² -
1787926914 31.11° C 63% 1016.7 hPa 0 mm - 211 W/m² -
1787926608 31.11° C 64% 1016.8 hPa 0 mm - 202 W/m² -
1787926307 30.56° C 65% 1016.9 hPa 0 mm - 177 W/m² -
1787926002 30.56° C 64% 1017 hPa 0 mm - 180 W/m² -
1787925697 30° C 66% 1016.8 hPa 0 mm - 175 W/m² -
1787925396 29.44° C 67% 1016.7 hPa 0 mm - 153 W/m² -

* Rain latest hour (hover to see other rain measurements)
** Current wind speed in m/s (hover to see current wind gust speed)